[[{"header":{"parameterUnit":"m.s-1","parameterCategory":2,"la1":30.2991,"la2":30.254,"lo1":-89.0895,"lo2":-89.0444,"dy":0.0017,"dx":0.0017,"nx":28,"ny":28,"refTime":"2024-07-05T21:00:00:Z","depth":"0","parameterNumber":2,"parameterNumberName":"U-component_of_CURRENTS"},"data":[0,0,0,0,0,0,0,0,0,0,0,0,0,0,0,0,0,0,0,0,0,0,0,0,0,0,0,0,0,0,0,0,0,0,0,0,0,0,0,0,0,0,0,0,0,0,0,0,0,0,0,0,0,0,0,0,0,0,-0.1946,-0.1946,0,-0.1966,-0.1966,-0.1966,-0.194,-0.1939,-0.1938,-0.1937,-0.1904,-0.1904,-0.1904,0,0,0,0,0,0,0,0,0,0,0,0,0,-0.1976,-0.1976,-0.1946,-0.1946,-0.1946,-0.1966,-0.1966,-0.1966,-0.194,-0.1939,-0.1938,-0.1936,-0.1904,-0.1904,-0.1904,0,0,0,0,0,0,0,0,0,0,0,0,0,-0.1977,-0.1975,-0.1946,-0.1935,-0.1934,-0.1965,-0.1966,-0.1966,-0.194,-0.1939,-0.1937,-0.1936,-0.1904,-0.1904,-0.1904,-0.1936,0,0,-0.1905,-0.1905,0,0,0,0,0,0,0,0,-0.1977,-0.1976,-0.1936,-0.1936,-0.1935,-0.1948,-0.1965,-0.1953,-0.1941,-0.1939,-0.1937,-0.1935,-0.1915,-0.1914,-0.1923,-0.1934,-0.1933,-0.1905,-0.1905,-0.1905,-0.1905,0,0,0,0,0,0,0,-0.1977,-0.1975,-0.1954,-0.1937,-0.1936,-0.196,-0.1958,-0.1963,-0.1935,-0.1939,-0.1937,-0.1938,-0.1914,-0.1923,-0.1922,-0.1932,-0.1905,-0.1905,-0.1905,-0.1905,-0.1969,-0.1971,0,0,0,0,0,0,-0.197,-0.1975,-0.1954,-0.1955,-0.1952,-0.196,-0.1958,-0.1946,-0.1936,-0.1933,-0.194,-0.1937,-0.1923,-0.1922,-0.192,-0.1964,-0.1905,-0.1905,-0.1905,-0.1968,-0.197,-0.1972,0,0,0,0,0,0,-0.197,-0.1967,-0.1953,-0.1966,-0.1965,-0.1961,-0.1948,-0.1947,-0.1948,-0.1937,-0.1933,-0.194,-0.1922,-0.192,-0.1937,-0.1962,-0.1905,-0.1905,-0.1966,-0.1968,-0.1971,-0.2046,0,0,0,0,0,0,-0.197,-0.1967,-0.1954,-0.1965,-0.1964,-0.1968,-0.195,-0.1949,-0.1951,-0.1948,-0.1936,-0.1932,-0.1921,-0.1937,-0.1937,-0.1961,-0.1905,-0.1964,-0.1967,-0.197,-0.2042,-0.2051,-0.2059,0,0,0,0,0,-0.1971,-0.1957,-0.1953,-0.1951,-0.1947,-0.1969,-0.1972,-0.1964,-0.1953,-0.1958,-0.1961,-0.1932,-0.1956,-0.1939,-0.1939,-0.1963,-0.1962,-0.1966,-0.197,-0.2038,-0.2049,-0.2059,0,0,0,0,0,0,-0.1966,-0.1953,-0.1949,-0.1931,-0.1949,-0.1964,-0.1962,-0.1967,-0.1976,-0.1969,-0.1957,-0.1955,-0.1979,-0.1964,-0.1945,-0.1991,-0.1953,-0.1957,-0.2005,-0.2015,-0.2024,-0.2008,-0.1905,0,0,0,0,0,-0.196,-0.1937,-0.1951,-0.1936,-0.1944,-0.1957,-0.1963,-0.1967,-0.1978,-0.1979,-0.1974,-0.1976,-0.1998,-0.1999,-0.2006,-0.2033,-0.2019,-0.2048,-0.2056,-0.2064,-0.2052,-0.2076,-0.2086,-0.1984,-0.1984,-0.1984,0,0,-0.195,-0.1943,-0.1927,-0.1933,-0.1941,-0.1957,-0.1956,-0.1969,-0.1989,-0.1975,-0.199,-0.2004,-0.2012,-0.2046,-0.2054,-0.2033,-0.2088,-0.2068,-0.2075,-0.2058,-0.2081,-0.2091,-0.2099,-0.1986,-0.1986,-0.1985,0,0,-0.1925,-0.1919,-0.1895,-0.1915,-0.1932,-0.1953,-0.1958,-0.1981,-0.1995,-0.2027,-0.203,-0.2062,-0.2072,-0.2098,-0.2111,-0.2172,-0.2135,-0.2169,-0.2198,-0.2223,-0.2231,-0.2238,-0.2242,-0.2248,-0.2172,-0.2172,-0.2172,0,-0.1912,-0.1886,-0.1898,-0.1899,-0.1914,-0.1951,-0.1958,-0.1993,-0.202,-0.2045,-0.2032,-0.2093,-0.2101,-0.2164,-0.2187,-0.2191,-0.2185,-0.216,-0.2234,-0.2241,-0.2246,-0.2248,-0.2254,-0.2176,-0.2175,-0.2175,-0.2175,0,-0.1874,-0.1868,-0.1864,-0.1871,-0.1901,-0.1914,-0.1971,-0.2006,-0.2031,-0.2065,-0.2127,-0.2158,-0.2189,-0.2212,-0.2217,-0.2275,-0.2252,-0.2245,-0.2206,-0.2261,-0.2259,-0.2265,-0.2182,-0.218,-0.2179,-0.2178,0,0,-0.1789,-0.1825,-0.1819,-0.1833,-0.1888,-0.1909,-0.197,-0.2033,-0.2073,-0.212,-0.217,-0.2235,-0.2253,-0.2269,-0.2293,-0.2322,-0.2373,-0.2299,-0.2298,-0.2297,-0.241,-0.2221,-0.2208,-0.2377,-0.2378,-0.2379,-0.2394,0,-0.1746,-0.1742,-0.1779,-0.18,-0.181,-0.1891,-0.1945,-0.2021,-0.2085,-0.2149,-0.222,-0.2266,-0.2278,-0.2297,-0.2337,-0.2363,-0.2387,-0.2367,-0.2358,-0.2357,-0.2179,-0.2208,-0.1986,-0.1964,-0.2399,-0.24,-0.24,0,-0.1674,-0.1691,-0.1695,-0.1773,-0.1786,-0.1815,-0.1918,-0.1973,-0.2097,-0.2147,-0.2225,-0.2277,-0.2351,-0.2341,-0.2411,-0.2394,-0.2401,-0.2416,-0.2417,-0.2209,-0.2177,-0.1978,-0.1957,-0.1858,-0.2408,-0.2407,-0.2407,0,-0.1583,-0.1627,-0.1629,-0.1651,-0.1748,-0.1779,-0.1836,-0.1959,-0.2018,-0.2138,-0.2183,-0.2287,-0.2319,-0.2368,-0.2407,-0.2409,-0.246,-0.2467,-0.2308,-0.2295,-0.2084,-0.2048,-0.1953,-0.2502,-0.2502,-0.2502,-0.2502,0,-0.1506,-0.1504,-0.1584,-0.1586,-0.1618,-0.1711,-0.1765,-0.1849,-0.1967,-0.203,-0.2159,-0.2213,-0.2323,-0.2378,-0.2413,-0.2358,-0.2463,-0.2299,-0.2281,-0.2102,-0.2069,-0.1953,-0.2079,-0.2502,-0.2502,-0.2502,-0.2502,0,-0.1387,-0.1433,-0.1447,-0.154,-0.1568,-0.1587,-0.1701,-0.1749,-0.1868,-0.1953,-0.1986,-0.2149,-0.2204,-0.2298,-0.2368,-0.2318,-0.2256,-0.2276,-0.2041,-0.1992,-0.1688,-0.1831,-0.1846,-0.1798,-0.2081,-0.2076,-0.2072,0,-0.1318,-0.1308,-0.139,-0.1402,-0.1434,-0.1486,-0.1529,-0.1669,-0.1728,-0.1902,-0.1931,-0.2032,-0.208,-0.2107,-0.2052,-0.2039,-0.2117,-0.1796,-0.1743,-0.1614,-0.1765,-0.1882,-0.1852,-0.1519,-0.1511,-0.1504,-0.1499,0,-0.1195,-0.1222,-0.1244,-0.1276,-0.1308,-0.1357,-0.1429,-0.1467,-0.1631,-0.1701,-0.179,-0.1841,-0.1856,-0.1716,-0.1668,-0.1651,-0.1704,-0.165,-0.1595,-0.1366,-0.1419,-0.1378,-0.1576,-0.1439,-0.1445,-0.145,-0.1453,-0.1455,-0.1094,-0.1078,-0.1111,-0.1135,-0.118,-0.1213,-0.1208,-0.1299,-0.1357,-0.1424,-0.1569,-0.1537,-0.1389,-0.1272,-0.1253,-0.0978,-0.13,-0.0897,-0.1101,-0.1241,-0.1125,-0.1159,-0.0945,-0.0947,-0.095,-0.0952,-0.0954,0,-0.0959,-0.0961,-0.0972,-0.0997,-0.1003,-0.1073,-0.1128,-0.1105,-0.1113,-0.1144,-0.1181,-0.0964,-0.0755,-0.0644,-0.0351,-0.036,-0.0455,-0.0458,-0.058,-0.0591,-0.0624,-0.0511,-0.0094,-0.0095,-0.0095,-0.0095,-0.0095,-0.0095,-0.0882,-0.0842,-0.0855,-0.0819,-0.0838,-0.0797,-0.0798,-0.078,-0.0764,-0.0623,-0.0487,-0.0473,-0.0263,-0.017,0.0008,-0.0038,-0.0187,-0.0293,-0.0459,-0.0457,-0.0513,-0.0566,-0.0473,-0.0056,-0.0056,-0.0217,-0.022,-0.0222]},{"header":{"parameterUnit":"m.s-1","parameterCategory":2,"la1":30.2991,"la2":30.254,"lo1":-89.0895,"lo2":-89.0444,"dy":0.0017,"dx":0.0017,"nx":28,"ny":28,"refTime":"2024-07-05T21:00:00:Z","depth":"0","parameterNumber":3,"parameterNumberName":"V-component_of_CURRENTS"},"data":[0,0,0,0,0,0,0,0,0,0,0,0,0,0,0,0,0,0,0,0,0,0,0,0,0,0,0,0,0,0,0,0,0,0,0,0,0,0,0,0,0,0,0,0,0,0,0,0,0,0,0,0,0,0,0,0,0,0,-0.1292,-0.1292,0,-0.1311,-0.1311,-0.1311,-0.1259,-0.1257,-0.1256,-0.1254,-0.1117,-0.1114,-0.1112,0,0,0,0,0,0,0,0,0,0,0,0,0,-0.115,-0.1153,-0.1292,-0.1293,-0.1293,-0.1311,-0.1311,-0.1311,-0.1259,-0.1257,-0.1255,-0.1254,-0.1118,-0.1115,-0.1112,0,0,0,0,0,0,0,0,0,0,0,0,0,-0.1192,-0.1154,-0.1292,-0.1271,-0.1269,-0.1311,-0.1311,-0.1311,-0.1259,-0.1257,-0.1255,-0.1253,-0.1118,-0.1115,-0.1111,-0.1131,0,0,-0.1101,-0.1099,0,0,0,0,0,0,0,0,-0.119,-0.1197,-0.1274,-0.1273,-0.1271,-0.1282,-0.121,-0.1244,-0.126,-0.126,-0.1254,-0.1252,-0.1161,-0.1154,-0.116,-0.1125,-0.1119,-0.11,-0.1098,-0.1097,-0.1096,0,0,0,0,0,0,0,-0.1187,-0.1196,-0.1297,-0.1274,-0.1273,-0.124,-0.1244,-0.1217,-0.1217,-0.126,-0.1257,-0.1264,-0.1158,-0.1164,-0.1156,-0.1117,-0.11,-0.1097,-0.1095,-0.1094,-0.1031,-0.1031,0,0,0,0,0,0,-0.1196,-0.1194,-0.1296,-0.1298,-0.1227,-0.1244,-0.1249,-0.1279,-0.1221,-0.1212,-0.1266,-0.1261,-0.1171,-0.1161,-0.1151,-0.1151,-0.1097,-0.1093,-0.1091,-0.103,-0.1031,-0.1031,0,0,0,0,0,0,-0.1193,-0.1206,-0.1296,-0.1246,-0.1255,-0.125,-0.1283,-0.128,-0.1277,-0.1227,-0.1214,-0.1265,-0.1169,-0.1156,-0.1122,-0.1145,-0.1092,-0.1088,-0.103,-0.103,-0.1031,-0.1162,0,0,0,0,0,0,-0.119,-0.1206,-0.1226,-0.1248,-0.1259,-0.1325,-0.1286,-0.1282,-0.1287,-0.1281,-0.1223,-0.1208,-0.1167,-0.1128,-0.1119,-0.1139,-0.1086,-0.1029,-0.103,-0.1031,-0.1157,-0.1167,-0.1176,0,0,0,0,0,-0.1185,-0.1227,-0.1228,-0.124,-0.129,-0.1327,-0.133,-0.1315,-0.1289,-0.1301,-0.1253,-0.121,-0.1126,-0.1126,-0.1115,-0.1135,-0.1029,-0.103,-0.1031,-0.1153,-0.1165,-0.1176,0,0,0,0,0,0,-0.1169,-0.1226,-0.1227,-0.1283,-0.1304,-0.1319,-0.1333,-0.1321,-0.1299,-0.1283,-0.1222,-0.1206,-0.1184,-0.1139,-0.114,-0.1116,-0.1068,-0.1067,-0.1165,-0.1176,-0.1185,-0.1225,-0.1083,0,0,0,0,0,-0.1181,-0.1229,-0.1265,-0.1306,-0.1323,-0.1328,-0.1338,-0.1333,-0.132,-0.1309,-0.127,-0.122,-0.1185,-0.1163,-0.1126,-0.1119,-0.1086,-0.112,-0.1129,-0.1138,-0.116,-0.1126,-0.1135,-0.1035,-0.1035,-0.1035,0,0,-0.1181,-0.1223,-0.1245,-0.1306,-0.1321,-0.1364,-0.1328,-0.1356,-0.1381,-0.1296,-0.1304,-0.1253,-0.1189,-0.1181,-0.1167,-0.1144,-0.1149,-0.1139,-0.1147,-0.1165,-0.1128,-0.1138,-0.1147,-0.1035,-0.1035,-0.1035,0,0,-0.1221,-0.1251,-0.1306,-0.1335,-0.1375,-0.1386,-0.1396,-0.1416,-0.1413,-0.1419,-0.136,-0.1327,-0.1278,-0.1247,-0.122,-0.1257,-0.1199,-0.1235,-0.1318,-0.1285,-0.1293,-0.1301,-0.1282,-0.1287,-0.124,-0.124,-0.1241,0,-0.1214,-0.1296,-0.1322,-0.1382,-0.1408,-0.1401,-0.1453,-0.1464,-0.1464,-0.1465,-0.1431,-0.1369,-0.1316,-0.1306,-0.1322,-0.1282,-0.1257,-0.1286,-0.13,-0.1307,-0.1312,-0.1291,-0.1294,-0.1247,-0.1246,-0.1245,-0.1245,0,-0.1301,-0.1354,-0.1387,-0.1466,-0.15,-0.1538,-0.1566,-0.1585,-0.1572,-0.1568,-0.1555,-0.1492,-0.1452,-0.1431,-0.1393,-0.1404,-0.1372,-0.1319,-0.1282,-0.1331,-0.1304,-0.1305,-0.1256,-0.1254,-0.1252,-0.125,0,0,-0.1306,-0.1424,-0.1433,-0.1471,-0.1543,-0.1574,-0.1634,-0.1676,-0.1692,-0.1683,-0.1697,-0.1655,-0.1612,-0.158,-0.1521,-0.1502,-0.152,-0.1443,-0.1438,-0.1444,-0.1462,-0.1327,-0.1315,-0.1469,-0.147,-0.1471,-0.1434,0,-0.1356,-0.1469,-0.1524,-0.1607,-0.1656,-0.1685,-0.1733,-0.1765,-0.1769,-0.1778,-0.1734,-0.1706,-0.167,-0.1635,-0.1627,-0.1533,-0.1527,-0.1536,-0.1397,-0.1394,-0.1283,-0.1313,-0.115,-0.1093,-0.1434,-0.1434,-0.1434,0,-0.1419,-0.1484,-0.1579,-0.1664,-0.1689,-0.1735,-0.1796,-0.1838,-0.1862,-0.1859,-0.1855,-0.1806,-0.1791,-0.1731,-0.166,-0.1667,-0.1596,-0.1528,-0.1523,-0.1355,-0.1261,-0.1094,-0.1081,-0.077,-0.1435,-0.1435,-0.1435,0,-0.1394,-0.1517,-0.1586,-0.1617,-0.1716,-0.1756,-0.1801,-0.1848,-0.1871,-0.1895,-0.1888,-0.1878,-0.1824,-0.1776,-0.1666,-0.1659,-0.1573,-0.1526,-0.135,-0.134,-0.1152,-0.1123,-0.0835,-0.1487,-0.1487,-0.1487,-0.1487,0,-0.1417,-0.1462,-0.1571,-0.1601,-0.1659,-0.174,-0.179,-0.1833,-0.1881,-0.1893,-0.1908,-0.1896,-0.1827,-0.1769,-0.1699,-0.1531,-0.1596,-0.1378,-0.1319,-0.1191,-0.1167,-0.0846,-0.0787,-0.1486,-0.1486,-0.1486,-0.1487,0,-0.1352,-0.1441,-0.1502,-0.161,-0.1645,-0.1671,-0.1769,-0.18,-0.1851,-0.187,-0.1872,-0.1885,-0.182,-0.1755,-0.1642,-0.1516,-0.1228,-0.1324,-0.1188,-0.1112,-0.0626,-0.0584,-0.0412,-0.0275,-0.1117,-0.1113,-0.111,0,-0.1315,-0.1347,-0.1466,-0.1501,-0.1543,-0.1608,-0.1656,-0.1757,-0.1795,-0.1853,-0.1853,-0.1817,-0.1801,-0.1614,-0.1415,-0.1265,-0.1102,-0.0941,-0.0884,-0.0576,-0.0488,-0.0519,-0.042,-0.0702,-0.0695,-0.069,-0.0686,0,-0.1204,-0.1252,-0.1304,-0.1393,-0.1455,-0.153,-0.1611,-0.1647,-0.1755,-0.1776,-0.1803,-0.1804,-0.1647,-0.1415,-0.1178,-0.1032,-0.07,-0.0828,-0.0532,-0.0164,-0.016,-0.0004,-0.0769,-0.0642,-0.0646,-0.0649,-0.0652,-0.0654,-0.1079,-0.1093,-0.1181,-0.126,-0.1343,-0.1436,-0.1472,-0.1559,-0.1614,-0.1638,-0.1718,-0.1673,-0.1345,-0.1019,-0.0819,-0.0179,-0.0402,0.006,0.0069,-0.0001,0.0189,-0.0483,-0.0263,-0.0265,-0.0267,-0.0269,-0.027,0,-0.0915,-0.0978,-0.1047,-0.1159,-0.1229,-0.1319,-0.1426,-0.144,-0.1468,-0.1493,-0.1516,-0.125,-0.0802,-0.0394,0.0366,0.0722,0.0731,0.0903,0.0936,0.0983,0.0418,0.051,0.0941,0.094,0.094,0.094,0.0939,0.0939,-0.0825,-0.0855,-0.0934,-0.102,-0.1107,-0.1174,-0.1225,-0.1233,-0.1239,-0.1129,-0.102,-0.0984,-0.0352,0.0622,0.1483,0.1586,0.1781,0.1702,0.1755,0.1458,0.1382,0.1309,0.1422,0.2036,0.2037,0.2375,0.2379,0.2381]}],[{"header":{"parameterUnit":"m.s-1","parameterCategory":2,"la1":30.2991,"la2":30.254,"lo1":-89.0895,"lo2":-89.0444,"dy":0.0017,"dx":0.0017,"nx":28,"ny":28,"refTime":"2024-07-05T21:00:00:Z","depth":"2","parameterNumber":2,"parameterNumberName":"U-component_of_CURRENTS"},"data":[0,0,0,0,0,0,0,0,0,0,0,0,0,0,0,0,0,0,0,0,0,0,0,0,0,0,0,0,0,0,0,0,0,0,0,0,0,0,0,0,0,0,0,0,0,0,0,0,0,0,0,0,0,0,0,0,0,0,-0.2017,-0.2018,0,-0.2149,-0.215,-0.2152,-0.2234,-0.2234,-0.2234,-0.2235,-0.2395,-0.2399,-0.2403,0,0,0,0,0,0,0,0,0,0,0,0,0,-0.1947,-0.1947,-0.2017,-0.2018,-0.202,-0.2148,-0.215,-0.2152,-0.2234,-0.2234,-0.2234,-0.2235,-0.2394,-0.2399,-0.2403,0,0,0,0,0,0,0,0,0,0,0,0,0,-0.202,-0.1947,-0.2017,-0.2074,-0.208,-0.2148,-0.215,-0.2153,-0.2234,-0.2234,-0.2234,-0.2235,-0.2392,-0.2398,-0.2404,-0.2436,0,0,-0.2423,-0.2425,0,0,0,0,0,0,0,0,-0.2015,-0.2023,-0.2064,-0.207,-0.2077,-0.2173,-0.2185,-0.2248,-0.2234,-0.2178,-0.2235,-0.2235,-0.2322,-0.2334,-0.2361,-0.2443,-0.245,-0.2423,-0.2427,-0.243,-0.2431,0,0,0,0,0,0,0,-0.201,-0.2018,-0.2072,-0.2066,-0.2074,-0.2131,-0.2141,-0.2198,-0.2249,-0.2183,-0.2189,-0.2199,-0.2326,-0.2355,-0.2365,-0.2452,-0.2423,-0.2429,-0.2432,-0.2435,-0.2462,-0.2459,0,0,0,0,0,0,-0.1983,-0.2012,-0.2068,-0.2075,-0.2044,-0.2131,-0.2143,-0.2144,-0.2248,-0.2263,-0.2199,-0.2202,-0.2344,-0.2358,-0.2371,-0.2402,-0.243,-0.2435,-0.2439,-0.2465,-0.2461,-0.2458,0,0,0,0,0,0,-0.198,-0.1986,-0.2062,-0.2046,-0.2059,-0.2131,-0.2133,-0.2146,-0.2194,-0.2259,-0.2275,-0.2234,-0.2345,-0.2363,-0.2391,-0.2409,-0.2438,-0.2444,-0.2468,-0.2463,-0.2459,-0.2471,0,0,0,0,0,0,-0.1978,-0.1984,-0.1982,-0.2043,-0.2059,-0.2077,-0.2133,-0.2149,-0.2198,-0.2204,-0.2294,-0.2309,-0.2346,-0.2381,-0.2397,-0.2418,-0.2449,-0.2472,-0.2466,-0.2461,-0.2474,-0.2468,-0.2462,0,0,0,0,0,-0.1975,-0.1962,-0.1981,-0.1988,-0.2051,-0.2075,-0.2088,-0.2143,-0.2199,-0.2195,-0.2247,-0.2307,-0.2356,-0.2385,-0.2404,-0.2427,-0.2474,-0.2468,-0.2461,-0.2477,-0.2469,-0.2462,0,0,0,0,0,0,-0.1946,-0.1971,-0.1993,-0.1993,-0.202,-0.2087,-0.2097,-0.2153,-0.2199,-0.2212,-0.2292,-0.2307,-0.2324,-0.2355,-0.2385,-0.2401,-0.2417,-0.2414,-0.2422,-0.2415,-0.2409,-0.2474,-0.2454,0,0,0,0,0,-0.1932,-0.1922,-0.1962,-0.1963,-0.1971,-0.2043,-0.2069,-0.2104,-0.2152,-0.2177,-0.2233,-0.2276,-0.2309,-0.2347,-0.2356,-0.2401,-0.241,-0.2411,-0.2405,-0.24,-0.2455,-0.2488,-0.2493,-0.2436,-0.2436,-0.2436,0,0,-0.1923,-0.1937,-0.1933,-0.1955,-0.1987,-0.2016,-0.206,-0.2083,-0.2129,-0.2186,-0.2245,-0.2253,-0.2302,-0.2321,-0.2335,-0.2365,-0.2388,-0.2391,-0.2389,-0.2447,-0.2482,-0.2489,-0.2495,-0.2431,-0.2432,-0.2433,0,0,-0.1907,-0.1907,-0.19,-0.1916,-0.1946,-0.1989,-0.1998,-0.2053,-0.2088,-0.2131,-0.217,-0.2188,-0.2251,-0.2287,-0.2322,-0.2288,-0.2334,-0.2277,-0.2348,-0.2377,-0.2385,-0.2393,-0.2297,-0.2296,-0.2302,-0.2302,-0.2302,0,-0.1903,-0.1909,-0.1903,-0.1913,-0.1948,-0.1983,-0.2019,-0.2051,-0.2109,-0.2165,-0.2133,-0.2244,-0.2243,-0.235,-0.2309,-0.2288,-0.2279,-0.2389,-0.2379,-0.2387,-0.2395,-0.2297,-0.2296,-0.2302,-0.2302,-0.2302,-0.2302,0,-0.1894,-0.1906,-0.1901,-0.1933,-0.196,-0.1979,-0.2026,-0.2059,-0.2108,-0.2167,-0.224,-0.2235,-0.2332,-0.2292,-0.2301,-0.2367,-0.2323,-0.2351,-0.2423,-0.2403,-0.2296,-0.2295,-0.2302,-0.2302,-0.2302,-0.2302,0,0,-0.1877,-0.1897,-0.1898,-0.1945,-0.1979,-0.2018,-0.207,-0.2164,-0.2257,-0.2267,-0.2366,-0.239,-0.2425,-0.2461,-0.2464,-0.2474,-0.2429,-0.2448,-0.2449,-0.2393,-0.2423,-0.2218,-0.2197,-0.2489,-0.2491,-0.2493,-0.2286,0,-0.1889,-0.1924,-0.1935,-0.201,-0.2048,-0.2099,-0.218,-0.2263,-0.2309,-0.2376,-0.241,-0.2459,-0.2486,-0.2499,-0.2542,-0.2429,-0.2449,-0.2479,-0.2417,-0.2413,-0.2273,-0.2199,-0.209,-0.1886,-0.2286,-0.2286,-0.2285,0,-0.1883,-0.1923,-0.1983,-0.2109,-0.2137,-0.2203,-0.2362,-0.2428,-0.2521,-0.2551,-0.2642,-0.2626,-0.2635,-0.2621,-0.2591,-0.2617,-0.2561,-0.2477,-0.2469,-0.2305,-0.2213,-0.1988,-0.1871,-0.2285,-0.2285,-0.2285,-0.2285,0,-0.1895,-0.1968,-0.2034,-0.2061,-0.219,-0.2277,-0.2381,-0.2508,-0.255,-0.2637,-0.2612,-0.2719,-0.265,-0.2674,-0.2502,-0.2559,-0.2388,-0.2439,-0.2224,-0.2203,-0.2113,-0.208,-0.2482,-0.2482,-0.2482,-0.2483,-0.2484,0,-0.1908,-0.1965,-0.206,-0.2099,-0.2263,-0.234,-0.2496,-0.2607,-0.2656,-0.2668,-0.2719,-0.2671,-0.2664,-0.2544,-0.2496,-0.2298,-0.2407,-0.2223,-0.2162,-0.2088,-0.2058,-0.2446,-0.2445,-0.2475,-0.2477,-0.2478,-0.248,0,-0.1901,-0.1939,-0.2038,-0.2192,-0.2261,-0.2387,-0.253,-0.2581,-0.2662,-0.2631,-0.2612,-0.2565,-0.2404,-0.2335,-0.2223,-0.2195,-0.2065,-0.2,-0.183,-0.1755,-0.1861,-0.1863,-0.1745,-0.1737,-0.173,-0.1724,-0.1719,0,-0.1899,-0.1932,-0.2094,-0.2173,-0.2253,-0.2419,-0.2487,-0.2592,-0.2572,-0.2542,-0.2455,-0.2298,-0.215,-0.1881,-0.1774,-0.1618,-0.1805,-0.1465,-0.1588,-0.1846,-0.1799,-0.1811,-0.1821,-0.1413,-0.1406,-0.14,-0.1396,0,-0.1922,-0.1964,-0.2064,-0.2195,-0.2285,-0.2344,-0.2428,-0.2402,-0.2428,-0.2351,-0.2185,-0.2049,-0.1775,-0.1538,-0.1335,-0.1258,-0.1478,-0.1337,-0.1679,-0.1612,-0.1517,-0.1475,-0.15,-0.1344,-0.135,-0.1353,-0.1356,-0.1358,-0.1949,-0.2043,-0.2142,-0.2248,-0.2294,-0.2244,-0.2243,-0.221,-0.2128,-0.1958,-0.19,-0.1671,-0.1569,-0.1177,-0.1017,-0.0901,-0.1036,-0.1066,-0.1092,-0.1123,-0.1118,-0.1016,-0.074,-0.0742,-0.0743,-0.0744,-0.0745,0,-0.1978,-0.2089,-0.2186,-0.2262,-0.2186,-0.2223,-0.2147,-0.2047,-0.1876,-0.1708,-0.1523,-0.125,-0.1042,-0.0954,-0.0697,-0.059,-0.0658,-0.0564,-0.0738,-0.0786,-0.0829,-0.0821,-0.0357,-0.0356,-0.0355,-0.0355,0,0,-0.2023,-0.2126,-0.2154,-0.2101,-0.2098,-0.1934,-0.1844,-0.1694,-0.1553,-0.1267,-0.1115,-0.1056,-0.1,-0.0773,-0.0624,-0.0477,-0.0636,-0.041,-0.072,-0.0979,-0.1023,-0.1102,-0.1136,0,0,0,0,0]},{"header":{"parameterUnit":"m.s-1","parameterCategory":2,"la1":30.2991,"la2":30.254,"lo1":-89.0895,"lo2":-89.0444,"dy":0.0017,"dx":0.0017,"nx":28,"ny":28,"refTime":"2024-07-05T21:00:00:Z","depth":"2","parameterNumber":3,"parameterNumberName":"V-component_of_CURRENTS"},"data":[0,0,0,0,0,0,0,0,0,0,0,0,0,0,0,0,0,0,0,0,0,0,0,0,0,0,0,0,0,0,0,0,0,0,0,0,0,0,0,0,0,0,0,0,0,0,0,0,0,0,0,0,0,0,0,0,0,0,-0.0085,-0.0084,0,0.0041,0.0042,0.0044,0.0125,0.0125,0.0126,0.0126,0.0403,0.041,0.0418,0,0,0,0,0,0,0,0,0,0,0,0,0,-0.0179,-0.0178,-0.0085,-0.0084,-0.0083,0.004,0.0042,0.0044,0.0125,0.0125,0.0126,0.0126,0.0401,0.041,0.0418,0,0,0,0,0,0,0,0,0,0,0,0,0,-0.0102,-0.0177,-0.0086,-0.003,-0.0024,0.004,0.0042,0.0045,0.0125,0.0125,0.0126,0.0126,0.0398,0.0409,0.0419,0.0478,0,0,0.0452,0.0457,0,0,0,0,0,0,0,0,-0.0106,-0.0098,-0.0039,-0.0033,-0.0027,0.0065,0.0111,0.0196,0.0125,0.0072,0.0126,0.0126,0.0302,0.0321,0.0346,0.0491,0.0503,0.0453,0.046,0.0464,0.0467,0,0,0,0,0,0,0,-0.0112,-0.0102,-0.0033,-0.0038,-0.003,0.0015,0.0026,0.0128,0.0188,0.0076,0.0082,0.0091,0.0307,0.0335,0.0353,0.0507,0.0453,0.0462,0.0469,0.0473,0.0644,0.0642,0,0,0,0,0,0,-0.0137,-0.0108,-0.0037,-0.0029,-0.007,0.0016,0.0029,0.0038,0.0184,0.0205,0.0091,0.0094,0.0316,0.0341,0.0363,0.0408,0.0464,0.0474,0.048,0.0646,0.0644,0.0642,0,0,0,0,0,0,-0.014,-0.0132,-0.0042,-0.0068,-0.0054,0.0016,0.0027,0.004,0.0073,0.0193,0.0217,0.011,0.0318,0.0348,0.0413,0.0421,0.0479,0.0489,0.0648,0.0645,0.0643,0.052,0,0,0,0,0,0,-0.0143,-0.0134,-0.0134,-0.007,-0.0053,-0.0018,0.0026,0.0042,0.0077,0.0083,0.0218,0.0244,0.032,0.0395,0.0423,0.0437,0.0497,0.0651,0.0647,0.0643,0.0527,0.0513,0.0502,0,0,0,0,0,-0.0147,-0.0144,-0.0135,-0.0126,-0.0057,-0.0019,-0.0006,0.0047,0.0077,0.0082,0.0147,0.024,0.0393,0.0402,0.0436,0.0453,0.0652,0.0648,0.0644,0.0532,0.0516,0.0503,0,0,0,0,0,0,-0.0177,-0.0134,-0.0123,-0.0105,-0.0077,-0.0007,0.0009,0.0045,0.0103,0.0113,0.0225,0.0253,0.0306,0.0386,0.0394,0.0483,0.0536,0.0538,0.044,0.0426,0.0414,0.042,0.0506,0,0,0,0,0,-0.019,-0.0178,-0.0137,-0.0125,-0.0114,-0.0054,-0.003,0.0001,0.0058,0.0085,0.0167,0.025,0.0315,0.0372,0.0437,0.0507,0.0602,0.0532,0.052,0.0509,0.0531,0.0691,0.0697,0.0627,0.0627,0.0628,0,0,-0.0196,-0.0173,-0.0165,-0.0132,-0.01,-0.0093,-0.0038,-0.001,-0.0002,0.011,0.0148,0.0212,0.0315,0.0363,0.0398,0.0439,0.0559,0.0504,0.0494,0.0523,0.0688,0.0696,0.0702,0.0624,0.0625,0.0625,0,0,-0.0206,-0.0189,-0.0186,-0.0172,-0.0142,-0.0115,-0.0113,-0.0059,-0.0033,0.0004,0.0069,0.0129,0.0242,0.0309,0.0361,0.0329,0.0474,0.0347,0.0325,0.0478,0.0487,0.0496,0.0548,0.0564,0.0361,0.0361,0.036,0,-0.0219,-0.0217,-0.018,-0.0181,-0.0184,-0.0133,-0.0146,-0.011,-0.0046,-0.0021,-0.0004,0.0153,0.0219,0.0316,0.0275,0.031,0.0393,0.0375,0.0468,0.0479,0.0491,0.0544,0.0562,0.0354,0.0355,0.0356,0.0356,0,-0.0228,-0.0237,-0.0236,-0.0233,-0.0229,-0.0233,-0.0201,-0.0184,-0.0153,-0.0106,-0.0023,0.0071,0.0182,0.019,0.0222,0.0329,0.0352,0.0421,0.0514,0.0492,0.0546,0.0567,0.0345,0.0347,0.0349,0.0351,0,0,-0.0238,-0.0245,-0.0249,-0.0277,-0.0267,-0.027,-0.0264,-0.024,-0.0197,-0.0138,-0.0062,0.0009,0.0094,0.0156,0.0232,0.0342,0.0435,0.0405,0.0416,0.047,0.072,0.0696,0.0718,0.0545,0.055,0.0553,0.0697,0,-0.0267,-0.0308,-0.0294,-0.0345,-0.0377,-0.0349,-0.0334,-0.0301,-0.0241,-0.0154,-0.0042,0.0057,0.0079,0.0151,0.0262,0.0404,0.05,0.0386,0.0723,0.0731,0.0729,0.0747,0.0662,0.0783,0.0719,0.0722,0.0725,0,-0.0288,-0.0325,-0.0385,-0.0419,-0.0423,-0.0433,-0.0407,-0.0384,-0.0256,-0.0181,-0.0048,0.0057,0.0197,0.0242,0.0505,0.044,0.0563,0.0668,0.0679,0.0733,0.0753,0.0811,0.0827,0.0763,0.076,0.0757,0.0755,0,-0.0344,-0.039,-0.0454,-0.047,-0.0485,-0.0495,-0.0489,-0.0397,-0.0338,-0.0179,-0.0095,0.0105,0.0212,0.043,0.0581,0.0582,0.0868,0.0915,0.1004,0.0999,0.1033,0.1025,0.1128,0.1128,0.1127,0.1127,0.1126,0,-0.0396,-0.0446,-0.0485,-0.0525,-0.0569,-0.0554,-0.0513,-0.0471,-0.0325,-0.0242,-0.0099,0.0015,0.0275,0.0444,0.0613,0.0848,0.0907,0.1011,0.1066,0.0972,0.0958,0.1044,0.1032,0.1132,0.1131,0.113,0.1129,0,-0.0453,-0.047,-0.0555,-0.0598,-0.0599,-0.0638,-0.0554,-0.0483,-0.0372,-0.025,-0.0201,-0.0021,0.0164,0.0384,0.0701,0.0868,0.1108,0.1171,0.0977,0.1008,0.1123,0.1102,0.1332,0.1333,0.1334,0.1335,0.1335,0,-0.0494,-0.054,-0.0621,-0.0633,-0.0655,-0.0656,-0.0606,-0.0512,-0.0433,-0.0285,-0.0237,-0.0068,0.006,0.0462,0.0794,0.1109,0.1077,0.1191,0.12,0.1128,0.1159,0.1137,0.1116,0.1157,0.1156,0.1155,0.1154,0,-0.0591,-0.0611,-0.0683,-0.0688,-0.0684,-0.0662,-0.0617,-0.0568,-0.045,-0.0368,-0.0286,-0.0191,0.0163,0.0466,0.0849,0.1018,0.1143,0.1188,0.1244,0.1104,0.0974,0.0999,0.0983,0.1148,0.1149,0.1149,0.1149,0.115,-0.0665,-0.0722,-0.0758,-0.0766,-0.0738,-0.0695,-0.0672,-0.0603,-0.0541,-0.0436,-0.0348,-0.012,0.0164,0.0757,0.0907,0.1103,0.1193,0.1226,0.1225,0.1226,0.1167,0.1045,0.1215,0.1216,0.1217,0.1218,0.1219,0,-0.0772,-0.0785,-0.0793,-0.0812,-0.0779,-0.0733,-0.0675,-0.0643,-0.0616,-0.0442,-0.0347,0.0028,0.0367,0.0637,0.0994,0.1182,0.1155,0.1095,0.1024,0.1032,0.1038,0.0966,0.0964,0.0963,0.0962,0.0961,0,0,-0.0822,-0.0877,-0.0867,-0.0856,-0.0821,-0.078,-0.076,-0.0728,-0.0598,-0.0479,-0.0214,0.0139,0.0519,0.0697,0.0809,0.0888,0.0894,0.0854,0.1051,0.0953,0.0956,0.1118,0.1016,0,0,0,0,0]}],[{"header":{"parameterUnit":"m.s-1","parameterCategory":2,"la1":30.2991,"la2":30.254,"lo1":-89.0895,"lo2":-89.0444,"dy":0.0017,"dx":0.0017,"nx":28,"ny":28,"refTime":"2024-07-05T21:00:00:Z","depth":"4","parameterNumber":2,"parameterNumberName":"U-component_of_CURRENTS"},"data":[0,0,0,0,0,0,0,0,0,0,0,0,0,0,0,0,0,0,0,0,0,0,0,0,0,0,0,0,0,0,0,0,0,0,0,0,0,0,0,0,0,0,0,0,0,0,0,0,0,0,0,0,0,0,0,0,0,0,-0.1446,-0.1447,0,-0.1473,-0.1473,-0.1473,-0.1504,-0.1505,-0.1505,-0.1506,-0.1544,-0.1545,-0.1545,0,0,0,0,0,0,0,0,0,0,0,0,0,-0.1399,-0.14,-0.1446,-0.1447,-0.1447,-0.1473,-0.1473,-0.1473,-0.1504,-0.1505,-0.1505,-0.1506,-0.1544,-0.1545,-0.1545,0,0,0,0,0,0,0,0,0,0,0,0,0,-0.1421,-0.14,-0.1446,-0.1466,-0.1468,-0.1473,-0.1473,-0.1474,-0.1504,-0.1505,-0.1505,-0.1506,-0.1544,-0.1545,-0.1546,-0.1534,0,0,-0.1548,-0.1548,0,0,0,0,0,0,0,0,-0.142,-0.1423,-0.1463,-0.1465,-0.1467,-0.1487,-0.1471,-0.1495,-0.1504,-0.1489,-0.1506,-0.1507,-0.1526,-0.1529,-0.153,-0.1535,-0.1537,-0.1548,-0.1548,-0.1549,-0.1549,0,0,0,0,0,0,0,-0.1418,-0.1421,-0.1456,-0.1463,-0.1466,-0.1466,-0.147,-0.1475,-0.1502,-0.1491,-0.1493,-0.1497,-0.1528,-0.1529,-0.1531,-0.1538,-0.1548,-0.1549,-0.1549,-0.1549,-0.1604,-0.1605,0,0,0,0,0,0,-0.1417,-0.142,-0.1455,-0.1457,-0.1446,-0.1466,-0.1471,-0.1479,-0.1502,-0.1507,-0.1497,-0.1499,-0.1528,-0.153,-0.1533,-0.1602,-0.1549,-0.1549,-0.155,-0.1603,-0.1604,-0.1605,0,0,0,0,0,0,-0.1416,-0.142,-0.1454,-0.144,-0.1444,-0.1467,-0.1475,-0.1479,-0.1505,-0.1507,-0.1511,-0.1521,-0.1528,-0.1532,-0.1556,-0.1601,-0.155,-0.1551,-0.1602,-0.1603,-0.1605,-0.1688,0,0,0,0,0,0,-0.1415,-0.142,-0.1437,-0.144,-0.1445,-0.1474,-0.1475,-0.1479,-0.1505,-0.1509,-0.1529,-0.1532,-0.1529,-0.1555,-0.1557,-0.1601,-0.1551,-0.1601,-0.1603,-0.1604,-0.1684,-0.1692,-0.1699,0,0,0,0,0,-0.1413,-0.1426,-0.1438,-0.1443,-0.1464,-0.1474,-0.1478,-0.1495,-0.1506,-0.1521,-0.1534,-0.1533,-0.1569,-0.1556,-0.1558,-0.1603,-0.16,-0.1602,-0.1604,-0.168,-0.169,-0.1698,0,0,0,0,0,0,-0.1416,-0.1431,-0.1444,-0.1463,-0.1478,-0.1481,-0.1497,-0.1507,-0.1529,-0.1538,-0.154,-0.1544,-0.1584,-0.1574,-0.1561,-0.1622,-0.1586,-0.1589,-0.1643,-0.1652,-0.166,-0.1641,-0.1552,0,0,0,0,0,-0.1424,-0.1441,-0.1453,-0.1473,-0.148,-0.1494,-0.1505,-0.1517,-0.1529,-0.1541,-0.1557,-0.1571,-0.159,-0.1606,-0.1613,-0.1644,-0.1614,-0.1674,-0.1681,-0.1688,-0.1673,-0.1657,-0.1662,-0.1613,-0.1613,-0.1612,0,0,-0.1432,-0.1442,-0.1455,-0.1475,-0.1488,-0.1509,-0.1503,-0.1526,-0.1556,-0.1541,-0.1591,-0.1598,-0.1601,-0.164,-0.1658,-0.1642,-0.1692,-0.1691,-0.1697,-0.1677,-0.166,-0.1664,-0.1669,-0.1614,-0.1614,-0.1614,0,0,-0.1444,-0.1465,-0.1482,-0.1496,-0.1519,-0.1532,-0.1544,-0.1564,-0.1588,-0.1626,-0.1628,-0.1654,-0.1685,-0.1696,-0.1705,-0.1753,-0.1729,-0.1769,-0.18,-0.1786,-0.179,-0.1793,-0.1784,-0.1785,-0.1777,-0.1778,-0.1778,0,-0.1457,-0.148,-0.1489,-0.1507,-0.1528,-0.1547,-0.1573,-0.1598,-0.1628,-0.1641,-0.1655,-0.1696,-0.171,-0.1745,-0.177,-0.1773,-0.1756,-0.1771,-0.1796,-0.1798,-0.1799,-0.1789,-0.179,-0.1782,-0.1781,-0.1781,-0.178,0,-0.1475,-0.1504,-0.1514,-0.155,-0.1573,-0.1598,-0.163,-0.1658,-0.1693,-0.171,-0.1755,-0.1772,-0.1785,-0.1815,-0.1813,-0.184,-0.1823,-0.1806,-0.1774,-0.1809,-0.1797,-0.1796,-0.1788,-0.1786,-0.1785,-0.1784,0,0,-0.1475,-0.152,-0.1528,-0.1544,-0.16,-0.1608,-0.1668,-0.1707,-0.1718,-0.1777,-0.1795,-0.1856,-0.1849,-0.1856,-0.1865,-0.1871,-0.1889,-0.1849,-0.1847,-0.1841,-0.1861,-0.172,-0.1704,-0.1877,-0.1876,-0.1876,-0.1857,0,-0.1492,-0.1529,-0.1557,-0.1601,-0.162,-0.1657,-0.1694,-0.1731,-0.1765,-0.1783,-0.1824,-0.1841,-0.1872,-0.1873,-0.1892,-0.1885,-0.1885,-0.1895,-0.1825,-0.1822,-0.1692,-0.1697,-0.1875,-0.1856,-0.1855,-0.1855,-0.1855,0,-0.1497,-0.1523,-0.1572,-0.1605,-0.1616,-0.1649,-0.1688,-0.1718,-0.1753,-0.1773,-0.1809,-0.1823,-0.1867,-0.1864,-0.1889,-0.1895,-0.1876,-0.1872,-0.187,-0.1698,-0.1676,-0.1806,-0.1852,-0.1852,-0.1852,-0.1852,-0.1853,0,-0.147,-0.1524,-0.1564,-0.1582,-0.1631,-0.1655,-0.1679,-0.1715,-0.1717,-0.1755,-0.1751,-0.1809,-0.1818,-0.1834,-0.1855,-0.1863,-0.1854,-0.1858,-0.1714,-0.1705,-0.1804,-0.1801,-0.1833,-0.1833,-0.1833,-0.1833,-0.1833,0,-0.146,-0.1486,-0.1551,-0.1566,-0.1577,-0.1627,-0.1628,-0.1652,-0.1675,-0.1656,-0.173,-0.1715,-0.1805,-0.1819,-0.1839,-0.1773,-0.1842,-0.1701,-0.1678,-0.1844,-0.1845,-0.1805,-0.1802,-0.1833,-0.1833,-0.1833,-0.1833,0,-0.1411,-0.1467,-0.1493,-0.1552,-0.1562,-0.1563,-0.1576,-0.1562,-0.1603,-0.1581,-0.1591,-0.1646,-0.1654,-0.1728,-0.1742,-0.1715,-0.169,-0.1641,-0.182,-0.1812,-0.1558,-0.156,-0.147,-0.1464,-0.146,-0.1456,-0.1453,0,-0.1386,-0.1402,-0.1456,-0.1449,-0.1476,-0.1481,-0.147,-0.1515,-0.1499,-0.1516,-0.1492,-0.1513,-0.1542,-0.1466,-0.1556,-0.1571,-0.1552,-0.1537,-0.1537,-0.1527,-0.1515,-0.1524,-0.1532,-0.1445,-0.1444,-0.1443,-0.1442,0,-0.1319,-0.1352,-0.1362,-0.1356,-0.1356,-0.1334,-0.1334,-0.131,-0.1346,-0.1403,-0.1332,-0.1322,-0.1313,-0.135,-0.1365,-0.1381,-0.1556,-0.1488,-0.1498,-0.1499,-0.1496,-0.1491,-0.1504,-0.1426,-0.1428,-0.143,-0.1431,0,-0.1251,-0.1233,-0.1249,-0.1221,-0.1222,-0.118,-0.1196,-0.1163,-0.1152,-0.1199,-0.1168,-0.1207,-0.1271,-0.1245,-0.1268,-0.1268,-0.1249,-0.1222,-0.1245,-0.1264,-0.1208,-0.1176,-0.0967,0,0,0,0,0,-0.117,-0.1128,-0.1102,-0.1064,-0.1068,-0.1067,-0.1091,-0.1119,-0.1173,-0.1079,-0.1116,-0.1097,-0.108,-0.1111,-0.107,-0.1195,-0.1278,-0.1143,-0.1265,-0.1337,-0.1356,-0.1313,0,0,0,0,0,0,-0.1106,-0.1084,-0.1059,-0.0943,-0.0895,-0.088,-0.0898,-0.0943,-0.0898,-0.0964,-0.0964,-0.1012,-0.103,-0.1079,-0.1038,-0.1052,-0.1101,-0.1182,-0.1178,-0.1327,-0.1344,-0.1358,-0.132,0,0,0,0,0]},{"header":{"parameterUnit":"m.s-1","parameterCategory":2,"la1":30.2991,"la2":30.254,"lo1":-89.0895,"lo2":-89.0444,"dy":0.0017,"dx":0.0017,"nx":28,"ny":28,"refTime":"2024-07-05T21:00:00:Z","depth":"4","parameterNumber":3,"parameterNumberName":"V-component_of_CURRENTS"},"data":[0,0,0,0,0,0,0,0,0,0,0,0,0,0,0,0,0,0,0,0,0,0,0,0,0,0,0,0,0,0,0,0,0,0,0,0,0,0,0,0,0,0,0,0,0,0,0,0,0,0,0,0,0,0,0,0,0,0,-0.0087,-0.0086,0,-0.0043,-0.0043,-0.0042,-0.0008,-0.0007,-0.0007,-0.0007,0.004,0.004,0.0041,0,0,0,0,0,0,0,0,0,0,0,0,0,-0.0129,-0.0128,-0.0087,-0.0086,-0.0086,-0.0043,-0.0043,-0.0042,-0.0008,-0.0007,-0.0007,-0.0006,0.0039,0.004,0.0041,0,0,0,0,0,0,0,0,0,0,0,0,0,-0.0101,-0.0128,-0.0087,-0.0063,-0.0061,-0.0043,-0.0043,-0.0042,-0.0008,-0.0007,-0.0007,-0.0006,0.0039,0.004,0.0042,0.0038,0,0,0.0045,0.0046,0,0,0,0,0,0,0,0,-0.0103,-0.01,-0.0067,-0.0065,-0.0062,-0.003,-0.0041,-0.0015,-0.0008,-0.0028,-0.0007,-0.0006,0.0016,0.002,0.0026,0.004,0.0042,0.0046,0.0046,0.0047,0.0047,0,0,0,0,0,0,0,-0.0105,-0.0101,-0.007,-0.0067,-0.0063,-0.0051,-0.0046,-0.0036,-0.001,-0.0027,-0.0024,-0.0018,0.0018,0.0024,0.0027,0.0043,0.0046,0.0047,0.0048,0.0048,0.0081,0.0081,0,0,0,0,0,0,-0.011,-0.0103,-0.0072,-0.0069,-0.0081,-0.005,-0.0045,-0.0041,-0.001,-0.0005,-0.0019,-0.0017,0.0022,0.0026,0.0029,0.0054,0.0047,0.0048,0.0049,0.0081,0.0081,0.0081,0,0,0,0,0,0,-0.0111,-0.0108,-0.0073,-0.0085,-0.0079,-0.005,-0.0046,-0.0041,-0.0033,-0.0004,0.0001,-0.0016,0.0023,0.0027,0.0039,0.0055,0.0049,0.005,0.0081,0.0081,0.0081,0.0088,0,0,0,0,0,0,-0.0113,-0.0109,-0.0111,-0.0085,-0.0079,-0.0065,-0.0046,-0.004,-0.003,-0.0027,-0.0,0.0005,0.0023,0.0037,0.004,0.0057,0.0051,0.0081,0.0081,0.0081,0.0087,0.0088,0.0088,0,0,0,0,0,-0.0115,-0.0116,-0.0111,-0.0107,-0.0081,-0.0065,-0.0061,-0.0039,-0.003,-0.0029,-0.0011,0.0004,0.0041,0.0037,0.0041,0.006,0.0081,0.0081,0.0081,0.0087,0.0088,0.0088,0,0,0,0,0,0,-0.0134,-0.0111,-0.0106,-0.01,-0.0086,-0.0059,-0.0055,-0.0043,-0.0028,-0.0025,0.0,0.0006,0.0027,0.0034,0.003,0.0068,0.0065,0.0066,0.0068,0.0069,0.007,0.0047,0.0052,0,0,0,0,0,-0.0141,-0.0136,-0.0115,-0.0112,-0.0106,-0.0084,-0.0076,-0.0062,-0.0043,-0.0036,-0.0017,0.0004,0.003,0.0041,0.0059,0.0072,0.0096,0.0087,0.0088,0.0088,0.0072,0.0136,0.0142,0.0082,0.0082,0.0082,0,0,-0.0147,-0.0135,-0.0133,-0.0116,-0.0104,-0.0102,-0.0077,-0.0067,-0.0065,-0.0034,-0.0027,0.0005,0.0033,0.0057,0.0067,0.0065,0.0119,0.0088,0.0089,0.0072,0.0137,0.0143,0.0148,0.0082,0.0082,0.0082,0,0,-0.0157,-0.0149,-0.0148,-0.0142,-0.0126,-0.0115,-0.0115,-0.0092,-0.008,-0.0071,-0.0037,0.0004,0.002,0.0062,0.0081,0.0092,0.0121,0.0095,0.0082,0.0145,0.0151,0.0156,0.0202,0.0211,0.0096,0.0096,0.0096,0,-0.0167,-0.0168,-0.0146,-0.0147,-0.0155,-0.0125,-0.0139,-0.0118,-0.0094,-0.0092,-0.0073,-0.0014,0.0027,0.0068,0.0082,0.0097,0.0122,0.0081,0.0148,0.0153,0.0159,0.0204,0.0214,0.0096,0.0096,0.0096,0.0096,0,-0.0173,-0.0183,-0.0184,-0.0182,-0.0184,-0.0191,-0.017,-0.0165,-0.015,-0.0129,-0.0092,-0.0026,0.0003,0.0043,0.0068,0.0125,0.0128,0.0145,0.0148,0.0165,0.0212,0.0222,0.0097,0.0096,0.0096,0.0096,0,0,-0.0184,-0.019,-0.0193,-0.0221,-0.0212,-0.0224,-0.0219,-0.0218,-0.0234,-0.017,-0.0175,-0.0075,-0.004,-0.0015,0.0043,0.0115,0.0201,0.014,0.0143,0.0187,0.0325,0.032,0.0332,0.0229,0.023,0.0232,0.0345,0,-0.0205,-0.0237,-0.0227,-0.0274,-0.0301,-0.0289,-0.0301,-0.0293,-0.0276,-0.027,-0.017,-0.015,-0.0061,-0.0047,0.0046,0.0149,0.0226,0.0167,0.0297,0.03,0.0298,0.0343,0.0237,0.0353,0.0355,0.0357,0.0358,0,-0.0217,-0.025,-0.0299,-0.0359,-0.037,-0.0387,-0.0433,-0.0435,-0.0402,-0.0389,-0.0327,-0.0271,-0.0155,-0.009,0.0121,0.0074,0.0193,0.0289,0.0296,0.0291,0.0315,0.033,0.0377,0.0376,0.0374,0.0373,0.0372,0,-0.0262,-0.0305,-0.0362,-0.0378,-0.0424,-0.0451,-0.0473,-0.0472,-0.0491,-0.0464,-0.0471,-0.0342,-0.0283,-0.0107,0.0115,0.0106,0.0345,0.0355,0.0466,0.0467,0.0433,0.0426,0.05,0.05,0.05,0.0499,0.0499,0,-0.0298,-0.0346,-0.0392,-0.0427,-0.0514,-0.0517,-0.0588,-0.0594,-0.0596,-0.061,-0.0532,-0.0499,-0.0285,-0.0122,0.0081,0.0315,0.0327,0.0466,0.0501,0.0432,0.0424,0.0441,0.0432,0.0504,0.0503,0.0502,0.0501,0,-0.0338,-0.0357,-0.044,-0.051,-0.0536,-0.06,-0.0665,-0.0706,-0.0703,-0.0716,-0.0712,-0.061,-0.0395,-0.0156,0.0127,0.0256,0.0486,0.0569,0.0474,0.0501,0.0565,0.0555,0.0668,0.0669,0.067,0.067,0.0671,0,-0.0366,-0.0405,-0.0509,-0.0564,-0.0598,-0.0681,-0.0732,-0.0757,-0.0778,-0.0758,-0.075,-0.0602,-0.0487,-0.0084,0.0148,0.0504,0.056,0.0629,0.0602,0.0562,0.0585,0.0574,0.0564,0.0672,0.0672,0.0672,0.0673,0,-0.0434,-0.0462,-0.0534,-0.0637,-0.0708,-0.079,-0.0843,-0.0862,-0.0862,-0.0869,-0.0754,-0.0586,-0.0356,-0.0071,0.0202,0.0462,0.055,0.0637,0.0637,0.0612,0.0568,0.0588,0.0577,0.0675,0.0675,0.0675,0.0674,0,-0.049,-0.0554,-0.063,-0.0716,-0.0802,-0.0853,-0.0884,-0.0868,-0.0879,-0.0817,-0.0772,-0.0539,-0.0415,-0.009,0.0177,0.0414,0.0453,0.0481,0.049,0.0489,0.0403,0.0319,0.0384,0,0,0,0,0,-0.0549,-0.0611,-0.0698,-0.0792,-0.0862,-0.0899,-0.0937,-0.0943,-0.0924,-0.0834,-0.0794,-0.0558,-0.0222,-0.0091,0.0155,0.0173,0.0476,0.0455,0.0508,0.069,0.0687,0.0616,0,0,0,0,0,0,-0.0596,-0.0684,-0.0713,-0.0815,-0.0871,-0.0948,-0.0962,-0.0951,-0.0875,-0.0824,-0.0614,-0.0547,-0.0183,-0.0335,0.0149,0.021,0.026,0.0617,0.062,0.0692,0.0689,0.0687,0.0612,0,0,0,0,0]}]]